• In Hungary
  • List of Countries
  • For 7 days
  • Water Temperature
  • Satellite Maps
  • Weather Map
  • News
  • Weather Widgets
  • user-avatar
    Login

    Hourly Weather Santa Lucía

    Today, 19 February, Monday

    Time Temperature Precipitation Wind Pressure Humidity
    00:00 +24°C° 0 mm 2 mps 733 mmHg 72%
    01:00 +23°C° 0 mm 2 mps 733 mmHg 75%
    02:00 +23°C° 0 mm 2 mps 733 mmHg 77%
    03:00 +21°C° 0 mm 2 mps 732 mmHg 79%
    04:00 +21°C° 0 mm 2 mps 732 mmHg 80%
    05:00 +20°C° 0 mm 2 mps 733 mmHg 81%
    06:00 +20°C° 0 mm 2 mps 733 mmHg 82%
    07:00 +24°C° 0 mm 2 mps 733 mmHg 69%
    08:00 +26°C° 0 mm 2 mps 734 mmHg 56%
    09:00 +29°C° 0 mm 2 mps 734 mmHg 44%
    10:00 +31°C° 0 mm 3 mps 734 mmHg 41%
    11:00 +34°C° 0 mm 3 mps 733 mmHg 37%
    12:00 +36°C° 0 mm 3 mps 733 mmHg 34%
    13:00 +36°C° 0 mm 3 mps 732 mmHg 35%
    14:00 +36°C° 0 mm 3 mps 732 mmHg 35%
    15:00 +35°C° 0 mm 3 mps 731 mmHg 36%
    16:00 +34°C° 0 mm 3 mps 731 mmHg 41%
    17:00 +31°C° 0 mm 3 mps 731 mmHg 46%
    18:00 +30°C° 0 mm 2 mps 731 mmHg 51%
    19:00 +29°C° 0.1 mm 2 mps 732 mmHg 57%
    20:00 +28°C° 0.1 mm 2 mps 732 mmHg 63%
    21:00 +26°C° 0.1 mm 2 mps 733 mmHg 69%
    22:00 +26°C° 0 mm 2 mps 733 mmHg 71%
    23:00 +25°C° 0 mm 2 mps 733 mmHg 74%

    Tomorrow, 20 February, Tuesday

    Time Temperature Precipitation Wind Pressure Humidity
    00:00 +24°C° 0 mm 2 mps 733 mmHg 77%
    01:00 +24°C° 0 mm 2 mps 733 mmHg 78%
    02:00 +23°C° 0 mm 2 mps 733 mmHg 80%
    03:00 +23°C° 0 mm 2 mps 732 mmHg 81%
    04:00 +23°C° 0 mm 2 mps 733 mmHg 81%
    05:00 +23°C° 0 mm 2 mps 733 mmHg 82%
    06:00 +21°C° 0 mm 2 mps 733 mmHg 82%
    07:00 +25°C° 0 mm 2 mps 733 mmHg 71%
    08:00 +27°C° 0 mm 2 mps 734 mmHg 60%
    09:00 +30°C° 0 mm 2 mps 735 mmHg 49%
    10:00 +32°C° 0 mm 2 mps 734 mmHg 43%
    11:00 +35°C° 0 mm 3 mps 734 mmHg 37%
    12:00 +36°C° 0 mm 3 mps 733 mmHg 30%
    13:00 +37°C° 0 mm 3 mps 733 mmHg 29%
    14:00 +37°C° 0 mm 3 mps 732 mmHg 28%
    15:00 +37°C° 0 mm 3 mps 731 mmHg 27%
    16:00 +35°C° 0 mm 3 mps 731 mmHg 33%
    17:00 +34°C° 0 mm 2 mps 732 mmHg 38%
    18:00 +31°C° 0 mm 2 mps 732 mmHg 43%
    19:00 +30°C° 0 mm 2 mps 733 mmHg 50%
    20:00 +28°C° 0 mm 2 mps 733 mmHg 57%
    21:00 +27°C° 0 mm 2 mps 734 mmHg 65%
    22:00 +26°C° 0 mm 2 mps 734 mmHg 69%
    23:00 +25°C° 0 mm 2 mps 734 mmHg 73%

    Day after tomorrow, 21 February, Wednesday

    Time Temperature Precipitation Wind Pressure Humidity
    00:00 +25°C° 0 mm 2 mps 734 mmHg 76%
    01:00 +24°C° 0 mm 2 mps 734 mmHg 78%
    02:00 +24°C° 0 mm 2 mps 733 mmHg 79%
    03:00 +24°C° 0 mm 2 mps 733 mmHg 80%
    04:00 +23°C° 0 mm 2 mps 733 mmHg 80%
    05:00 +23°C° 0 mm 2 mps 733 mmHg 81%
    06:00 +23°C° 0 mm 2 mps 734 mmHg 81%
    07:00 +25°C° 0 mm 2 mps 734 mmHg 70%
    08:00 +28°C° 0 mm 3 mps 735 mmHg 59%
    09:00 +30°C° 0 mm 3 mps 735 mmHg 47%
    10:00 +33°C° 0 mm 3 mps 735 mmHg 41%
    11:00 +35°C° 0 mm 4 mps 734 mmHg 35%
    12:00 +36°C° 0 mm 4 mps 734 mmHg 28%
    13:00 +37°C° 0 mm 4 mps 733 mmHg 29%
    14:00 +37°C° 0 mm 4 mps 732 mmHg 29%
    15:00 +37°C° 0 mm 4 mps 732 mmHg 30%
    16:00 +35°C° 0 mm 4 mps 732 mmHg 35%
    17:00 +34°C° 0 mm 3 mps 732 mmHg 40%
    18:00 +31°C° 0 mm 3 mps 732 mmHg 44%
    19:00 +30°C° 0 mm 3 mps 733 mmHg 50%
    20:00 +28°C° 0 mm 3 mps 734 mmHg 57%
    21:00 +27°C° 0 mm 3 mps 735 mmHg 63%
    22:00 +26°C° 0 mm 2 mps 735 mmHg 66%
    23:00 +26°C° 0 mm 2 mps 735 mmHg 70%

    22 February, Thursday

    Time Temperature Precipitation Wind Pressure Humidity
    00:00 +25°C° 0 mm 2 mps 734 mmHg 73%
    01:00 +24°C° 0 mm 2 mps 734 mmHg 75%
    02:00 +24°C° 0 mm 2 mps 734 mmHg 76%
    03:00 +23°C° 0 mm 2 mps 733 mmHg 78%
    04:00 +23°C° 0 mm 2 mps 734 mmHg 78%
    05:00 +23°C° 0 mm 2 mps 734 mmHg 79%
    06:00 +21°C° 0 mm 2 mps 734 mmHg 79%
    07:00 +25°C° 0 mm 2 mps 735 mmHg 69%
    08:00 +27°C° 0 mm 3 mps 735 mmHg 58%
    09:00 +30°C° 0 mm 3 mps 736 mmHg 47%
    10:00 +33°C° 0 mm 3 mps 735 mmHg 41%
    11:00 +34°C° 0 mm 3 mps 735 mmHg 35%
    12:00 +36°C° 0 mm 4 mps 734 mmHg 29%
    13:00 +37°C° 0 mm 4 mps 733 mmHg 28%
    14:00 +37°C° 0 mm 4 mps 732 mmHg 28%
    15:00 +38°C° 0 mm 4 mps 731 mmHg 27%
    16:00 +36°C° 0 mm 4 mps 732 mmHg 33%
    17:00 +34°C° 0 mm 4 mps 732 mmHg 39%
    18:00 +31°C° 0 mm 3 mps 732 mmHg 45%
    19:00 +30°C° 0 mm 3 mps 733 mmHg 51%
    20:00 +29°C° 0 mm 3 mps 734 mmHg 57%
    21:00 +28°C° 0 mm 3 mps 734 mmHg 62%
    22:00 +27°C° 0 mm 3 mps 734 mmHg 64%
    23:00 +26°C° 0 mm 2 mps 734 mmHg 67%

    23 February, Friday

    Time Temperature Precipitation Wind Pressure Humidity
    00:00 +26°C° 0 mm 2 mps 734 mmHg 69%
    01:00 +26°C° 0 mm 2 mps 734 mmHg 70%
    02:00 +25°C° 0 mm 2 mps 733 mmHg 71%
    03:00 +25°C° 0 mm 2 mps 733 mmHg 72%
    04:00 +25°C° 0 mm 2 mps 733 mmHg 74%
    05:00 +24°C° 0 mm 2 mps 733 mmHg 75%
    06:00 +24°C° 0 mm 2 mps 734 mmHg 77%
    07:00 +26°C° 0 mm 2 mps 734 mmHg 68%
    08:00 +28°C° 0 mm 3 mps 735 mmHg 58%
    09:00 +30°C° 0 mm 3 mps 735 mmHg 49%
    10:00 +33°C° 0 mm 3 mps 735 mmHg 43%
    11:00 +35°C° 0 mm 4 mps 734 mmHg 37%
    12:00 +36°C° 0 mm 4 mps 733 mmHg 31%
    13:00 +36°C° 0 mm 4 mps 732 mmHg 31%
    14:00 +36°C° 0 mm 4 mps 732 mmHg 32%
    15:00 +37°C° 0 mm 4 mps 731 mmHg 32%
    16:00 +35°C° 0 mm 4 mps 731 mmHg 36%
    17:00 +34°C° 0 mm 3 mps 731 mmHg 40%
    18:00 +31°C° 0 mm 3 mps 732 mmHg 43%
    19:00 +29°C° 0 mm 2 mps 732 mmHg 49%
    20:00 +28°C° 0 mm 2 mps 733 mmHg 55%
    21:00 +26°C° 0 mm 2 mps 733 mmHg 60%
    22:00 +26°C° 0 mm 2 mps 733 mmHg 64%
    23:00 +25°C° 0 mm 2 mps 733 mmHg 68%

    24 February, Saturday

    Time Temperature Precipitation Wind Pressure Humidity
    00:00 +24°C° 0 mm 2 mps 733 mmHg 72%
    01:00 +24°C° 0 mm 2 mps 733 mmHg 74%
    02:00 +24°C° 0 mm 2 mps 733 mmHg 76%
    03:00 +23°C° 0 mm 2 mps 732 mmHg 78%
    04:00 +23°C° 0 mm 2 mps 732 mmHg 79%
    05:00 +23°C° 0 mm 2 mps 733 mmHg 80%
    06:00 +21°C° 0 mm 2 mps 733 mmHg 80%
    07:00 +25°C° 0 mm 2 mps 733 mmHg 67%
    08:00 +28°C° 0 mm 2 mps 734 mmHg 54%
    09:00 +31°C° 0 mm 2 mps 734 mmHg 41%
    10:00 +34°C° 0 mm 2 mps 734 mmHg 34%
    11:00 +36°C° 0 mm 2 mps 733 mmHg 27%
    12:00 +38°C° 0 mm 2 mps 733 mmHg 20%
    13:00 +38°C° 0 mm 2 mps 732 mmHg 20%
    14:00 +38°C° 0 mm 3 mps 731 mmHg 20%
    15:00 +38°C° 0 mm 3 mps 730 mmHg 20%
    16:00 +36°C° 0 mm 2 mps 731 mmHg 26%
    17:00 +34°C° 0 mm 2 mps 731 mmHg 32%
    18:00 +31°C° 0 mm 2 mps 731 mmHg 38%
    19:00 +29°C° 0 mm 1 mps 731 mmHg 45%
    20:00 +27°C° 0 mm 1 mps 732 mmHg 52%
    21:00 +24°C° 0 mm 0 mps 733 mmHg 59%
    22:00 +25°C° 0 mm 1 mps 733 mmHg 60%
    23:00 +25°C° 0 mm 1 mps 732 mmHg 62%
    Show more